Mt. Pocono, PA

6:17 AM EST on February 24, 2018 (GMT -0500)
Pocono Mountains Municipal

Weather History for KMPO - March, 2013

Change the Weather History Date:

Friday, March 29, 2013

  Actual Average Record
Temperature  
Mean Temperature 38 °F 38 °F  
Max Temperature 44 °F 47 °F 79 °F (1945)
Min Temperature 32 °F 29 °F 7 °F (1959)
Degree Days  
Heating Degree Days 27 27  
Month to date heating degree days 991 923  
Since 1 July heating degree days 5819 6046  
Cooling Degree Days 0 0  
Month to date cooling degree days 0 0  
Year to date cooling degree days 0 0  
Moisture  
Dew Point 26 °F    
Average Humidity 68    
Maximum Humidity 82    
Minimum Humidity 53    
Precipitation  
Precipitation T in 0.16 in 1.17 in (2014)
Month to date precipitation 3.12 3.51  
Year to date precipitation 6.65 8.77  
Sea Level Pressure  
Sea Level Pressure 30.14 in    
Wind  
Wind Speed 10 mph (NW)    
Max Wind Speed 20 mph    
Max Gust Speed 29 mph    
Visibility 10 miles    
Events      
T = Trace of Precipitation, MM = Missing Value Source: NWS Daily Summary

Daily Weather History Graph

Daily Weather History Graph

Search for Another Location

Airport or City:

Trip Planner

Search our weather history database for the weather conditions in past years. The results will help you decide how hot, cold, wet, or windy it might be!

Date:

Astronomy

Mar. 29, 2013 Rise Set
Actual Time 6:49 AM EDT 7:23 PM EDT
Civil Twilight 6:21 AM EDT 7:51 PM EDT
Nautical Twilight 5:49 AM EDT 8:24 PM EDT
Astronomical Twilight 5:15 AM EDT 8:57 PM EDT
Moon 10:22 PM EDT (3/29) 7:55 AM EDT (3/29)
Length of Visible Light 13h 29m
Length of Day
12h 34m
Waning Gibbous, 93% of the Moon is Illuminated
Mar 29
Waning Gibbous
Apr 3
Last Quarter
Apr 10
New
Apr 18
First Quarter
Apr 25
Full

Hourly Weather History & Observations

Time (EDT) Temp. Windchill Dew Point Humidity Pressure Visibility Wind Dir Wind Speed Gust Speed Precip Events Conditions
12:53 AM 35.1 °F 26.9 °F 26.1 °F 70% 30.16 in 10.0 mi NW 11.5 mph - N/A   Overcast
1:53 AM 35.1 °F 30.1 °F 26.1 °F 70% 30.16 in 10.0 mi NNW 5.8 mph - N/A   Overcast
2:53 AM 35.1 °F 27.4 °F 25.0 °F 67% 30.16 in 10.0 mi NW 10.4 mph - N/A   Overcast
3:53 AM 33.1 °F 25.5 °F 25.0 °F 72% 30.14 in 10.0 mi NW 9.2 mph - N/A   Clear
4:53 AM 33.1 °F 26.1 °F 25.0 °F 72% 30.14 in 10.0 mi NW 8.1 mph - N/A   Clear
5:53 AM 32.0 °F 24.8 °F 24.1 °F 73% 30.14 in 10.0 mi NW 8.1 mph - N/A   Clear
6:53 AM 32.0 °F 24.8 °F 24.1 °F 73% 30.15 in 10.0 mi NW 8.1 mph - N/A   Clear
7:53 AM 34.0 °F 26.0 °F 25.0 °F 70% 30.16 in 10.0 mi NW 10.4 mph - N/A   Clear
8:53 AM 36.0 °F 26.7 °F 24.1 °F 62% 30.15 in 10.0 mi NW 15.0 mph 21.9 mph N/A   Clear
9:53 AM 37.0 °F 28.1 °F 23.0 °F 57% 30.15 in 10.0 mi NW 15.0 mph 21.9 mph N/A   Clear
10:53 AM 39.0 °F 32.3 °F 25.0 °F 57% 30.16 in 10.0 mi NW 10.4 mph - N/A   Mostly Cloudy
11:53 AM 39.0 °F 31.4 °F 27.0 °F 62% 30.14 in 10.0 mi NW 12.7 mph 19.6 mph N/A   Overcast
12:53 PM 39.9 °F 32.1 °F 26.1 °F 58% 30.14 in 10.0 mi NW 13.8 mph 19.6 mph N/A   Overcast
1:53 PM 39.9 °F 32.1 °F 26.1 °F 58% 30.12 in 10.0 mi NW 13.8 mph 21.9 mph N/A   Overcast
2:53 PM 41.0 °F 33.5 °F 28.0 °F 60% 30.11 in 10.0 mi NW 13.8 mph 20.7 mph N/A   Overcast
3:53 PM 39.9 °F 32.9 °F 27.0 °F 60% 30.11 in 10.0 mi NW 11.5 mph - N/A   Overcast
4:53 PM 42.1 °F 36.1 °F 27.0 °F 55% 30.10 in 10.0 mi NW 10.4 mph 26.5 mph N/A   Scattered Clouds
5:53 PM 42.1 °F 35.2 °F 26.1 °F 53% 30.10 in 10.0 mi NNW 12.7 mph 17.3 mph N/A   Overcast
6:53 PM 39.9 °F 34.5 °F 28.9 °F 65% 30.12 in 10.0 mi West 8.1 mph - 0.00 in   Mostly Cloudy
7:53 PM 37.0 °F 31.6 °F 28.9 °F 73% 30.13 in 9.0 mi WNW 6.9 mph - 0.00 in   Overcast
8:53 PM 36.0 °F 30.3 °F 28.9 °F 76% 30.14 in 10.0 mi NW 6.9 mph - N/A   Mostly Cloudy
9:53 PM 36.0 °F 29.6 °F 28.0 °F 73% 30.14 in 10.0 mi NW 8.1 mph - N/A   Clear
10:53 PM 34.0 °F 28.8 °F 28.0 °F 79% 30.14 in 10.0 mi NW 5.8 mph - N/A   Clear
11:53 PM 33.1 °F 26.9 °F 28.0 °F 82% 30.15 in 10.0 mi NW 6.9 mph - N/A   Clear